GALAXY 31 (G-31)

Last updated on Wed Jul 09 2025 00:02:47 GMT+0000 (Coordinated Universal Time)

1 54243U 22153A 25189.39616367 .00000030 00000+0 00000+0 0 9998 2 54243 0.0134 25.9221 0000626 97.5688 184.7211 1.00270761 3681
UTC large
Height (km)
Speed (km/s)
/
Latitude / Longitude
Inclination (degrees)
Orbital Period (minutes)
Azimuth
Elevation
Range (km)
Doppler Factor

Next 0 passes for location: London (51.5072 / 0.1276)

Sorry there are no passes over London.